����,10���Ԉړ��ώZ�J��(mm),1���Ԉړ��ώZ�J��(mm),���J��(mm),�݌v�J��(mm)
2020-04-13T00:00:00+09:00,1,4.5,27,27
2020-04-13T00:01:00+09:00,0.5,4.5,0,27
2020-04-13T00:02:00+09:00,0.5,4.5,0,27
2020-04-13T00:03:00+09:00,0.5,4.5,0,27
2020-04-13T00:04:00+09:00,0.5,4.5,0,27
2020-04-13T00:05:00+09:00,1,5,0.5,27.5
2020-04-13T00:06:00+09:00,0.5,4.5,0.5,27.5
2020-04-13T00:07:00+09:00,0.5,4.5,0.5,27.5
2020-04-13T00:08:00+09:00,0.5,4.5,0.5,27.5
2020-04-13T00:09:00+09:00,0.5,4.5,0.5,27.5
2020-04-13T00:10:00+09:00,1,5,1,28
2020-04-13T00:11:00+09:00,1,5,1,28
2020-04-13T00:12:00+09:00,1,4.5,1,28
2020-04-13T00:13:00+09:00,1,4.5,1,28
2020-04-13T00:14:00+09:00,1,4.5,1,28
2020-04-13T00:15:00+09:00,1,5,1.5,28.5
2020-04-13T00:16:00+09:00,1,5,1.5,28.5
2020-04-13T00:17:00+09:00,1,5,1.5,28.5
2020-04-13T00:18:00+09:00,1,4.5,1.5,28.5
2020-04-13T00:19:00+09:00,1,4.5,1.5,28.5
2020-04-13T00:20:00+09:00,0.5,4.5,1.5,28.5
2020-04-13T00:21:00+09:00,0.5,4.5,1.5,28.5
2020-04-13T00:22:00+09:00,0.5,4.5,1.5,28.5
2020-04-13T00:23:00+09:00,0.5,4,1.5,28.5
2020-04-13T00:24:00+09:00,0.5,4,1.5,28.5
2020-04-13T00:25:00+09:00,0.5,4.5,2,29
2020-04-13T00:26:00+09:00,0.5,4.5,2,29
2020-04-13T00:27:00+09:00,0.5,4.5,2,29
2020-04-13T00:28:00+09:00,0.5,4.5,2,29
2020-04-13T00:29:00+09:00,0.5,4.5,2,29
2020-04-13T00:30:00+09:00,0.5,4,2,29
2020-04-13T00:31:00+09:00,0.5,4,2,29
2020-04-13T00:32:00+09:00,0.5,4,2,29
2020-04-13T00:33:00+09:00,0.5,4,2,29
2020-04-13T00:34:00+09:00,1,4.5,2.5,29.5
2020-04-13T00:35:00+09:00,0.5,4.5,2.5,29.5
2020-04-13T00:36:00+09:00,0.5,4.5,2.5,29.5
2020-04-13T00:37:00+09:00,0.5,4.5,2.5,29.5
2020-04-13T00:38:00+09:00,0.5,4,2.5,29.5
2020-04-13T00:39:00+09:00,0.5,4,2.5,29.5
2020-04-13T00:40:00+09:00,0.5,4,2.5,29.5
2020-04-13T00:41:00+09:00,0.5,4,2.5,29.5
2020-04-13T00:42:00+09:00,1,4.5,3,30
2020-04-13T00:43:00+09:00,1,4.5,3,30
2020-04-13T00:44:00+09:00,0.5,4.5,3,30
2020-04-13T00:45:00+09:00,0.5,4,3,30
2020-04-13T00:46:00+09:00,0.5,4,3,30
2020-04-13T00:47:00+09:00,0.5,4,3,30
2020-04-13T00:48:00+09:00,0.5,4,3,30
2020-04-13T00:49:00+09:00,0.5,4,3,30
2020-04-13T00:50:00+09:00,0.5,4,3,30
2020-04-13T00:51:00+09:00,0.5,3.5,3,30
2020-04-13T00:52:00+09:00,0,3.5,3,30
2020-04-13T00:53:00+09:00,0,3.5,3,30
2020-04-13T00:54:00+09:00,0,3.5,3,30
2020-04-13T00:55:00+09:00,0.5,4,3.5,30.5
2020-04-13T00:56:00+09:00,0.5,3.5,3.5,30.5
2020-04-13T00:57:00+09:00,0.5,3.5,3.5,30.5
2020-04-13T00:58:00+09:00,0.5,3.5,3.5,30.5
2020-04-13T00:59:00+09:00,0.5,3.5,3.5,30.5
2020-04-13T01:00:00+09:00,0.5,3.5,3.5,30.5
2020-04-13T01:01:00+09:00,1,4,4,31
2020-04-13T01:02:00+09:00,1,4,4,31
2020-04-13T01:03:00+09:00,1,4,4,31
2020-04-13T01:04:00+09:00,1,4,4,31
2020-04-13T01:05:00+09:00,0.5,3.5,4,31
2020-04-13T01:06:00+09:00,0.5,3.5,4,31
2020-04-13T01:07:00+09:00,1,4,4.5,31.5
2020-04-13T01:08:00+09:00,1,4,4.5,31.5
2020-04-13T01:09:00+09:00,1,4,4.5,31.5
2020-04-13T01:10:00+09:00,1,3.5,4.5,31.5
2020-04-13T01:11:00+09:00,0.5,3.5,4.5,31.5
2020-04-13T01:12:00+09:00,0.5,3.5,4.5,31.5
2020-04-13T01:13:00+09:00,0.5,3.5,4.5,31.5
2020-04-13T01:14:00+09:00,0.5,3.5,4.5,31.5
2020-04-13T01:15:00+09:00,1,3.5,5,32
2020-04-13T01:16:00+09:00,1,3.5,5,32
2020-04-13T01:17:00+09:00,0.5,3.5,5,32
2020-04-13T01:18:00+09:00,0.5,3.5,5,32
2020-04-13T01:19:00+09:00,0.5,3.5,5,32
2020-04-13T01:20:00+09:00,1,4,5.5,32.5
2020-04-13T01:21:00+09:00,1,4,5.5,32.5
2020-04-13T01:22:00+09:00,1,4,5.5,32.5
2020-04-13T01:23:00+09:00,1,4,5.5,32.5
2020-04-13T01:24:00+09:00,1,4,5.5,32.5
2020-04-13T01:25:00+09:00,0.5,3.5,5.5,32.5
2020-04-13T01:26:00+09:00,1,4,6,33
2020-04-13T01:27:00+09:00,1,4,6,33
2020-04-13T01:28:00+09:00,1,4,6,33
2020-04-13T01:29:00+09:00,1,4,6,33
2020-04-13T01:30:00+09:00,1,4.5,6.5,33.5
2020-04-13T01:31:00+09:00,1,4.5,6.5,33.5
2020-04-13T01:32:00+09:00,1,4.5,6.5,33.5
2020-04-13T01:33:00+09:00,1,4.5,6.5,33.5
2020-04-13T01:34:00+09:00,1.5,4.5,7,34
2020-04-13T01:35:00+09:00,1.5,4.5,7,34
2020-04-13T01:36:00+09:00,1,4.5,7,34
2020-04-13T01:37:00+09:00,1,4.5,7,34
2020-04-13T01:38:00+09:00,1.5,5,7.5,34.5
2020-04-13T01:39:00+09:00,1.5,5,7.5,34.5
2020-04-13T01:40:00+09:00,1,5,7.5,34.5
2020-04-13T01:41:00+09:00,1,5,7.5,34.5
2020-04-13T01:42:00+09:00,1,4.5,7.5,34.5
2020-04-13T01:43:00+09:00,1.5,5,8,35
2020-04-13T01:44:00+09:00,1,5,8,35
2020-04-13T01:45:00+09:00,1,5,8,35
2020-04-13T01:46:00+09:00,1,5,8,35
2020-04-13T01:47:00+09:00,1.5,5.5,8.5,35.5
2020-04-13T01:48:00+09:00,1,5.5,8.5,35.5
2020-04-13T01:49:00+09:00,1,5.5,8.5,35.5
2020-04-13T01:50:00+09:00,1,5.5,8.5,35.5
2020-04-13T01:51:00+09:00,1,5.5,8.5,35.5
2020-04-13T01:52:00+09:00,1.5,6,9,36
2020-04-13T01:53:00+09:00,1,6,9,36
2020-04-13T01:54:00+09:00,1,6,9,36
2020-04-13T01:55:00+09:00,1,5.5,9,36
2020-04-13T01:56:00+09:00,1,5.5,9,36
2020-04-13T01:57:00+09:00,1,6,9.5,36.5
2020-04-13T01:58:00+09:00,1,6,9.5,36.5
2020-04-13T01:59:00+09:00,1,6,9.5,36.5
2020-04-13T02:00:00+09:00,1.5,6.5,10,37
2020-04-13T02:01:00+09:00,1.5,6,10,37
2020-04-13T02:02:00+09:00,1,6,10,37
2020-04-13T02:03:00+09:00,1,6,10,37
2020-04-13T02:04:00+09:00,1,6,10,37
2020-04-13T02:05:00+09:00,1,6,10,37
2020-04-13T02:06:00+09:00,1,6,10,37
2020-04-13T02:07:00+09:00,0.5,5.5,10,37
2020-04-13T02:08:00+09:00,0.5,5.5,10,37
2020-04-13T02:09:00+09:00,0.5,5.5,10,37
2020-04-13T02:10:00+09:00,0,5.5,10,37
2020-04-13T02:11:00+09:00,0.5,6,10.5,37.5
2020-04-13T02:12:00+09:00,0.5,6,10.5,37.5
2020-04-13T02:13:00+09:00,0.5,6,10.5,37.5
2020-04-13T02:14:00+09:00,0.5,6,10.5,37.5
2020-04-13T02:15:00+09:00,0.5,5.5,10.5,37.5
2020-04-13T02:16:00+09:00,0.5,5.5,10.5,37.5
2020-04-13T02:17:00+09:00,0.5,5.5,10.5,37.5
2020-04-13T02:18:00+09:00,0.5,5.5,10.5,37.5
2020-04-13T02:19:00+09:00,1,6,11,38
2020-04-13T02:20:00+09:00,1,5.5,11,38
2020-04-13T02:21:00+09:00,0.5,5.5,11,38
2020-04-13T02:22:00+09:00,0.5,5.5,11,38
2020-04-13T02:23:00+09:00,0.5,5.5,11,38
2020-04-13T02:24:00+09:00,0.5,5.5,11,38
2020-04-13T02:25:00+09:00,0.5,5.5,11,38
2020-04-13T02:26:00+09:00,0.5,5,11,38
2020-04-13T02:27:00+09:00,0.5,5,11,38
2020-04-13T02:28:00+09:00,0.5,5,11,38
2020-04-13T02:29:00+09:00,0,5,11,38
2020-04-13T02:30:00+09:00,0,4.5,11,38
2020-04-13T02:31:00+09:00,0.5,5,11.5,38.5
2020-04-13T02:32:00+09:00,0.5,5,11.5,38.5
2020-04-13T02:33:00+09:00,0.5,5,11.5,38.5
2020-04-13T02:34:00+09:00,0.5,4.5,11.5,38.5
2020-04-13T02:35:00+09:00,0.5,4.5,11.5,38.5
2020-04-13T02:36:00+09:00,1,5,12,39
2020-04-13T02:37:00+09:00,1,5,12,39
2020-04-13T02:38:00+09:00,1,4.5,12,39
2020-04-13T02:39:00+09:00,1,4.5,12,39
2020-04-13T02:40:00+09:00,1.5,5,12.5,39.5
2020-04-13T02:41:00+09:00,1,5,12.5,39.5
2020-04-13T02:42:00+09:00,1,5,12.5,39.5
2020-04-13T02:43:00+09:00,1,4.5,12.5,39.5
2020-04-13T02:44:00+09:00,1,4.5,12.5,39.5
2020-04-13T02:45:00+09:00,1,4.5,12.5,39.5
2020-04-13T02:46:00+09:00,0.5,4.5,12.5,39.5
2020-04-13T02:47:00+09:00,0.5,4,12.5,39.5
2020-04-13T02:48:00+09:00,1,4.5,13,40
2020-04-13T02:49:00+09:00,1,4.5,13,40
2020-04-13T02:50:00+09:00,0.5,4.5,13,40
2020-04-13T02:51:00+09:00,0.5,4.5,13,40
2020-04-13T02:52:00+09:00,0.5,4,13,40
2020-04-13T02:53:00+09:00,1,4.5,13.5,40.5
2020-04-13T02:54:00+09:00,1,4.5,13.5,40.5
2020-04-13T02:55:00+09:00,1,4.5,13.5,40.5
2020-04-13T02:56:00+09:00,1,4.5,13.5,40.5
2020-04-13T02:57:00+09:00,1.5,4.5,14,41
2020-04-13T02:58:00+09:00,1,4.5,14,41
2020-04-13T02:59:00+09:00,1,4.5,14,41
2020-04-13T03:00:00+09:00,1,4,14,41
2020-04-13T03:01:00+09:00,1,4,14,41
2020-04-13T03:02:00+09:00,1.5,4.5,14.5,41.5
2020-04-13T03:03:00+09:00,1,4.5,14.5,41.5
2020-04-13T03:04:00+09:00,1,4.5,14.5,41.5
2020-04-13T03:05:00+09:00,1,4.5,14.5,41.5
2020-04-13T03:06:00+09:00,1,4.5,14.5,41.5
2020-04-13T03:07:00+09:00,0.5,4.5,14.5,41.5
2020-04-13T03:08:00+09:00,1,5,15,42
2020-04-13T03:09:00+09:00,1,5,15,42
2020-04-13T03:10:00+09:00,1,5,15,42
2020-04-13T03:11:00+09:00,1,4.5,15,42
2020-04-13T03:12:00+09:00,0.5,4.5,15,42
2020-04-13T03:13:00+09:00,0.5,4.5,15,42
2020-04-13T03:14:00+09:00,0.5,4.5,15,42
2020-04-13T03:15:00+09:00,1,5,15.5,42.5
2020-04-13T03:16:00+09:00,1,5,15.5,42.5
2020-04-13T03:17:00+09:00,1,5,15.5,42.5
2020-04-13T03:18:00+09:00,0.5,5,15.5,42.5
2020-04-13T03:19:00+09:00,0.5,4.5,15.5,42.5
2020-04-13T03:20:00+09:00,0.5,4.5,15.5,42.5
2020-04-13T03:21:00+09:00,0.5,4.5,15.5,42.5
2020-04-13T03:22:00+09:00,1,5,16,43
2020-04-13T03:23:00+09:00,1,5,16,43
2020-04-13T03:24:00+09:00,1,5,16,43
2020-04-13T03:25:00+09:00,0.5,5,16,43
2020-04-13T03:26:00+09:00,0.5,5,16,43
2020-04-13T03:27:00+09:00,0.5,5,16,43
2020-04-13T03:28:00+09:00,0.5,5,16,43
2020-04-13T03:29:00+09:00,0.5,5,16,43
2020-04-13T03:30:00+09:00,0.5,5,16,43
2020-04-13T03:31:00+09:00,1,5,16.5,43.5
2020-04-13T03:32:00+09:00,0.5,5,16.5,43.5
2020-04-13T03:33:00+09:00,0.5,5,16.5,43.5
2020-04-13T03:34:00+09:00,0.5,5,16.5,43.5
2020-04-13T03:35:00+09:00,0.5,5,16.5,43.5
2020-04-13T03:36:00+09:00,0.5,4.5,16.5,43.5
2020-04-13T03:37:00+09:00,0.5,4.5,16.5,43.5
2020-04-13T03:38:00+09:00,0.5,4.5,16.5,43.5
2020-04-13T03:39:00+09:00,1,5,17,44
2020-04-13T03:40:00+09:00,1,4.5,17,44
2020-04-13T03:41:00+09:00,0.5,4.5,17,44
2020-04-13T03:42:00+09:00,0.5,4.5,17,44
2020-04-13T03:43:00+09:00,0.5,4.5,17,44
2020-04-13T03:44:00+09:00,1,5,17.5,44.5
2020-04-13T03:45:00+09:00,1,5,17.5,44.5
2020-04-13T03:46:00+09:00,1,5,17.5,44.5
2020-04-13T03:47:00+09:00,1,5,17.5,44.5
2020-04-13T03:48:00+09:00,1,4.5,17.5,44.5
2020-04-13T03:49:00+09:00,0.5,4.5,17.5,44.5
2020-04-13T03:50:00+09:00,0.5,4.5,17.5,44.5
2020-04-13T03:51:00+09:00,0.5,4.5,17.5,44.5
2020-04-13T03:52:00+09:00,1,5,18,45
2020-04-13T03:53:00+09:00,1,4.5,18,45
2020-04-13T03:54:00+09:00,0.5,4.5,18,45
2020-04-13T03:55:00+09:00,0.5,4.5,18,45
2020-04-13T03:56:00+09:00,0.5,4.5,18,45
2020-04-13T03:57:00+09:00,0.5,4,18,45
2020-04-13T03:58:00+09:00,1,4.5,18.5,45.5
2020-04-13T03:59:00+09:00,1,4.5,18.5,45.5
2020-04-13T04:00:00+09:00,1,4.5,18.5,45.5
2020-04-13T04:01:00+09:00,1,4.5,18.5,45.5
2020-04-13T04:02:00+09:00,0.5,4,18.5,45.5
2020-04-13T04:03:00+09:00,1,4.5,19,46
2020-04-13T04:04:00+09:00,1,4.5,19,46
2020-04-13T04:05:00+09:00,1,4.5,19,46
2020-04-13T04:06:00+09:00,1,4.5,19,46
2020-04-13T04:07:00+09:00,1.5,5,19.5,46.5
2020-04-13T04:08:00+09:00,1,4.5,19.5,46.5
2020-04-13T04:09:00+09:00,1,4.5,19.5,46.5
2020-04-13T04:10:00+09:00,1,4.5,19.5,46.5
2020-04-13T04:11:00+09:00,1,4.5,19.5,46.5
2020-04-13T04:12:00+09:00,1,4.5,19.5,46.5
2020-04-13T04:13:00+09:00,1,5,20,47
2020-04-13T04:14:00+09:00,1,5,20,47
2020-04-13T04:15:00+09:00,1,4.5,20,47
2020-04-13T04:16:00+09:00,1,4.5,20,47
2020-04-13T04:17:00+09:00,0.5,4.5,20,47
2020-04-13T04:18:00+09:00,0.5,4.5,20,47
2020-04-13T04:19:00+09:00,0.5,4.5,20,47
2020-04-13T04:20:00+09:00,1,5,20.5,47.5
2020-04-13T04:21:00+09:00,1,5,20.5,47.5
2020-04-13T04:22:00+09:00,1,4.5,20.5,47.5
2020-04-13T04:23:00+09:00,0.5,4.5,20.5,47.5
2020-04-13T04:24:00+09:00,0.5,4.5,20.5,47.5
2020-04-13T04:25:00+09:00,1,5,21,48
2020-04-13T04:26:00+09:00,1,5,21,48
2020-04-13T04:27:00+09:00,1,5,21,48
2020-04-13T04:28:00+09:00,1,5,21,48
2020-04-13T04:29:00+09:00,1,5,21,48
2020-04-13T04:30:00+09:00,0.5,5,21,48
2020-04-13T04:31:00+09:00,1,5,21.5,48.5
2020-04-13T04:32:00+09:00,1,5,21.5,48.5
2020-04-13T04:33:00+09:00,1,5,21.5,48.5
2020-04-13T04:34:00+09:00,1,5,21.5,48.5
2020-04-13T04:35:00+09:00,0.5,5,21.5,48.5
2020-04-13T04:36:00+09:00,0.5,5,21.5,48.5
2020-04-13T04:37:00+09:00,1,5.5,22,49
2020-04-13T04:38:00+09:00,1,5.5,22,49
2020-04-13T04:39:00+09:00,1,5,22,49
2020-04-13T04:40:00+09:00,1,5,22,49
2020-04-13T04:41:00+09:00,0.5,5,22,49
2020-04-13T04:42:00+09:00,0.5,5,22,49
2020-04-13T04:43:00+09:00,0.5,5,22,49
2020-04-13T04:44:00+09:00,0.5,4.5,22,49
2020-04-13T04:45:00+09:00,1,5,22.5,49.5
2020-04-13T04:46:00+09:00,1,5,22.5,49.5
2020-04-13T04:47:00+09:00,0.5,5,22.5,49.5
2020-04-13T04:48:00+09:00,0.5,5,22.5,49.5
2020-04-13T04:49:00+09:00,0.5,5,22.5,49.5
2020-04-13T04:50:00+09:00,0.5,5,22.5,49.5
2020-04-13T04:51:00+09:00,0.5,5,22.5,49.5
2020-04-13T04:52:00+09:00,0.5,4.5,22.5,49.5
2020-04-13T04:53:00+09:00,0.5,4.5,22.5,49.5
2020-04-13T04:54:00+09:00,0.5,4.5,22.5,49.5
2020-04-13T04:55:00+09:00,0.5,5,23,50
2020-04-13T04:56:00+09:00,0.5,5,23,50
2020-04-13T04:57:00+09:00,0.5,5,23,50
2020-04-13T04:58:00+09:00,0.5,4.5,23,50
2020-04-13T04:59:00+09:00,0.5,4.5,23,50
2020-04-13T05:00:00+09:00,0.5,4.5,23,50
2020-04-13T05:01:00+09:00,0.5,4.5,23,50
2020-04-13T05:02:00+09:00,1,5,23.5,50.5
2020-04-13T05:03:00+09:00,1,4.5,23.5,50.5
2020-04-13T05:04:00+09:00,1,4.5,23.5,50.5
2020-04-13T05:05:00+09:00,0.5,4.5,23.5,50.5
2020-04-13T05:06:00+09:00,0.5,4.5,23.5,50.5
2020-04-13T05:07:00+09:00,0.5,4,23.5,50.5
2020-04-13T05:08:00+09:00,1,4.5,24,51
2020-04-13T05:09:00+09:00,1,4.5,24,51
2020-04-13T05:10:00+09:00,1,4.5,24,51
2020-04-13T05:11:00+09:00,1,4.5,24,51
2020-04-13T05:12:00+09:00,0.5,4.5,24,51
2020-04-13T05:13:00+09:00,0.5,4,24,51
2020-04-13T05:14:00+09:00,0.5,4,24,51
2020-04-13T05:15:00+09:00,1,4.5,24.5,51.5
2020-04-13T05:16:00+09:00,1,4.5,24.5,51.5
2020-04-13T05:17:00+09:00,1,4.5,24.5,51.5
2020-04-13T05:18:00+09:00,0.5,4.5,24.5,51.5
2020-04-13T05:19:00+09:00,1,5,25,52
2020-04-13T05:20:00+09:00,1,4.5,25,52
2020-04-13T05:21:00+09:00,1,4.5,25,52
2020-04-13T05:22:00+09:00,1,4.5,25,52
2020-04-13T05:23:00+09:00,1,4.5,25,52
2020-04-13T05:24:00+09:00,1,4.5,25,52
2020-04-13T05:25:00+09:00,1,4.5,25.5,52.5
2020-04-13T05:26:00+09:00,1,4.5,25.5,52.5
2020-04-13T05:27:00+09:00,1.5,5,26,53
2020-04-13T05:28:00+09:00,1.5,5,26,53
2020-04-13T05:29:00+09:00,1,5,26,53
2020-04-13T05:30:00+09:00,1.5,5.5,26.5,53.5
2020-04-13T05:31:00+09:00,1.5,5,26.5,53.5
2020-04-13T05:32:00+09:00,1.5,5,26.5,53.5
2020-04-13T05:33:00+09:00,2,5.5,27,54
2020-04-13T05:34:00+09:00,2,5.5,27,54
2020-04-13T05:35:00+09:00,1.5,5.5,27,54
2020-04-13T05:36:00+09:00,2,6,27.5,54.5
2020-04-13T05:37:00+09:00,1.5,5.5,27.5,54.5
2020-04-13T05:38:00+09:00,1.5,5.5,27.5,54.5
2020-04-13T05:39:00+09:00,2,6,28,55
2020-04-13T05:40:00+09:00,1.5,6,28,55
2020-04-13T05:41:00+09:00,1.5,6,28,55
2020-04-13T05:42:00+09:00,1.5,6,28,55
2020-04-13T05:43:00+09:00,1,6,28,55
2020-04-13T05:44:00+09:00,1.5,6.5,28.5,55.5
2020-04-13T05:45:00+09:00,1.5,6,28.5,55.5
2020-04-13T05:46:00+09:00,1,6,28.5,55.5
2020-04-13T05:47:00+09:00,1,6,28.5,55.5
2020-04-13T05:48:00+09:00,1,6,28.5,55.5
2020-04-13T05:49:00+09:00,0.5,6,28.5,55.5
2020-04-13T05:50:00+09:00,0.5,6,28.5,55.5
2020-04-13T05:51:00+09:00,0.5,6,28.5,55.5
2020-04-13T05:52:00+09:00,0.5,6,28.5,55.5
2020-04-13T05:53:00+09:00,0.5,6,28.5,55.5
2020-04-13T05:54:00+09:00,0,6,28.5,55.5
2020-04-13T05:55:00+09:00,0,5.5,28.5,55.5
2020-04-13T05:56:00+09:00,0,5.5,28.5,55.5
2020-04-13T05:57:00+09:00,0,5.5,28.5,55.5
2020-04-13T05:58:00+09:00,0,5.5,28.5,55.5
2020-04-13T05:59:00+09:00,0,5.5,28.5,55.5
2020-04-13T06:00:00+09:00,0,5.5,28.5,55.5
2020-04-13T06:01:00+09:00,0,5.5,28.5,55.5
2020-04-13T06:02:00+09:00,0,5,28.5,55.5
2020-04-13T06:03:00+09:00,0,5,28.5,55.5
2020-04-13T06:04:00+09:00,0,5,28.5,55.5
2020-04-13T06:05:00+09:00,0,5,28.5,55.5
2020-04-13T06:06:00+09:00,0,5,28.5,55.5
2020-04-13T06:07:00+09:00,0,5,28.5,55.5
2020-04-13T06:08:00+09:00,0,4.5,28.5,55.5
2020-04-13T06:09:00+09:00,0,4.5,28.5,55.5
2020-04-13T06:10:00+09:00,0,4.5,28.5,55.5
2020-04-13T06:11:00+09:00,0,4.5,28.5,55.5
2020-04-13T06:12:00+09:00,0,4.5,28.5,55.5
2020-04-13T06:13:00+09:00,0,4.5,28.5,55.5
2020-04-13T06:14:00+09:00,0,4.5,28.5,55.5
2020-04-13T06:15:00+09:00,0,4,28.5,55.5
2020-04-13T06:16:00+09:00,0,4,28.5,55.5
2020-04-13T06:17:00+09:00,0,4,28.5,55.5
2020-04-13T06:18:00+09:00,0,4,28.5,55.5
2020-04-13T06:19:00+09:00,0,3.5,28.5,55.5
2020-04-13T06:20:00+09:00,0,3.5,28.5,55.5
2020-04-13T06:21:00+09:00,0,3.5,28.5,55.5
2020-04-13T06:22:00+09:00,0,3.5,28.5,55.5
2020-04-13T06:23:00+09:00,0,3.5,28.5,55.5
2020-04-13T06:24:00+09:00,0,3.5,28.5,55.5
2020-04-13T06:25:00+09:00,0,3,28.5,55.5
2020-04-13T06:26:00+09:00,0,3,28.5,55.5
2020-04-13T06:27:00+09:00,0,2.5,28.5,55.5
2020-04-13T06:28:00+09:00,0,2.5,28.5,55.5
2020-04-13T06:29:00+09:00,0.5,3,29,56
2020-04-13T06:30:00+09:00,0.5,2.5,29,56
2020-04-13T06:31:00+09:00,0.5,2.5,29,56
2020-04-13T06:32:00+09:00,0.5,2.5,29,56
2020-04-13T06:33:00+09:00,0.5,2,29,56
2020-04-13T06:34:00+09:00,0.5,2,29,56
2020-04-13T06:35:00+09:00,0.5,2,29,56
2020-04-13T06:36:00+09:00,0.5,1.5,29,56
2020-04-13T06:37:00+09:00,0.5,1.5,29,56
2020-04-13T06:38:00+09:00,0.5,1.5,29,56
2020-04-13T06:39:00+09:00,0,1,29,56
2020-04-13T06:40:00+09:00,0,1,29,56
2020-04-13T06:41:00+09:00,0,1,29,56
2020-04-13T06:42:00+09:00,0,1,29,56
2020-04-13T06:43:00+09:00,0,1,29,56
2020-04-13T06:44:00+09:00,0,0.5,29,56
2020-04-13T06:45:00+09:00,0,0.5,29,56
2020-04-13T06:46:00+09:00,0,0.5,29,56
2020-04-13T06:47:00+09:00,0,0.5,29,56
2020-04-13T06:48:00+09:00,0,0.5,29,56
2020-04-13T06:49:00+09:00,0.5,1,29.5,56.5
2020-04-13T06:50:00+09:00,0.5,1,29.5,56.5
2020-04-13T06:51:00+09:00,0.5,1,29.5,56.5
2020-04-13T06:52:00+09:00,0.5,1,29.5,56.5
2020-04-13T06:53:00+09:00,0.5,1,29.5,56.5
2020-04-13T06:54:00+09:00,0.5,1,29.5,56.5
2020-04-13T06:55:00+09:00,0.5,1,29.5,56.5
2020-04-13T06:56:00+09:00,0.5,1,29.5,56.5
2020-04-13T06:57:00+09:00,0.5,1,29.5,56.5
2020-04-13T06:58:00+09:00,0.5,1,29.5,56.5
2020-04-13T06:59:00+09:00,0,1,29.5,56.5
2020-04-13T07:00:00+09:00,0,1,29.5,56.5
2020-04-13T07:01:00+09:00,0,1,29.5,56.5
2020-04-13T07:02:00+09:00,0,1,29.5,56.5
2020-04-13T07:03:00+09:00,0,1,29.5,56.5
2020-04-13T07:04:00+09:00,0.5,1.5,30,57
2020-04-13T07:05:00+09:00,0.5,1.5,30,57
2020-04-13T07:06:00+09:00,0.5,1.5,30,57
2020-04-13T07:07:00+09:00,0.5,1.5,30,57
2020-04-13T07:08:00+09:00,0.5,1.5,30,57
2020-04-13T07:09:00+09:00,0.5,1.5,30,57
2020-04-13T07:10:00+09:00,0.5,1.5,30,57
2020-04-13T07:11:00+09:00,0.5,1.5,30,57
2020-04-13T07:12:00+09:00,0.5,1.5,30,57
2020-04-13T07:13:00+09:00,0.5,1.5,30,57
2020-04-13T07:14:00+09:00,0.5,2,30.5,57.5
2020-04-13T07:15:00+09:00,0.5,2,30.5,57.5
2020-04-13T07:16:00+09:00,0.5,2,30.5,57.5
2020-04-13T07:17:00+09:00,0.5,2,30.5,57.5
2020-04-13T07:18:00+09:00,0.5,2,30.5,57.5
2020-04-13T07:19:00+09:00,0.5,2,30.5,57.5
2020-04-13T07:20:00+09:00,0.5,2,30.5,57.5
2020-04-13T07:21:00+09:00,1,2.5,31,58
2020-04-13T07:22:00+09:00,1,2.5,31,58
2020-04-13T07:23:00+09:00,1,2.5,31,58
2020-04-13T07:24:00+09:00,0.5,2.5,31,58
2020-04-13T07:25:00+09:00,0.5,2.5,31,58
2020-04-13T07:26:00+09:00,0.5,2.5,31,58
2020-04-13T07:27:00+09:00,0.5,2.5,31,58
2020-04-13T07:28:00+09:00,0.5,2.5,31,58
2020-04-13T07:29:00+09:00,0.5,2,31,58
2020-04-13T07:30:00+09:00,0.5,2,31,58
2020-04-13T07:31:00+09:00,0,2,31,58
2020-04-13T07:32:00+09:00,0.5,2.5,31.5,58.5
2020-04-13T07:33:00+09:00,0.5,2.5,31.5,58.5
2020-04-13T07:34:00+09:00,0.5,2.5,31.5,58.5
2020-04-13T07:35:00+09:00,0.5,2.5,31.5,58.5
2020-04-13T07:36:00+09:00,0.5,2.5,31.5,58.5
2020-04-13T07:37:00+09:00,0.5,2.5,31.5,58.5
2020-04-13T07:38:00+09:00,0.5,2.5,31.5,58.5
2020-04-13T07:39:00+09:00,0.5,2.5,31.5,58.5
2020-04-13T07:40:00+09:00,1,3,32,59
2020-04-13T07:41:00+09:00,1,3,32,59
2020-04-13T07:42:00+09:00,0.5,3,32,59
2020-04-13T07:43:00+09:00,0.5,3,32,59
2020-04-13T07:44:00+09:00,0.5,3,32,59
2020-04-13T07:45:00+09:00,0.5,3,32,59
2020-04-13T07:46:00+09:00,0.5,3,32,59
2020-04-13T07:47:00+09:00,0.5,3,32,59
2020-04-13T07:48:00+09:00,0.5,3,32,59
2020-04-13T07:49:00+09:00,1,3,32.5,59.5
2020-04-13T07:50:00+09:00,0.5,3,32.5,59.5
2020-04-13T07:51:00+09:00,0.5,3,32.5,59.5
2020-04-13T07:52:00+09:00,0.5,3,32.5,59.5
2020-04-13T07:53:00+09:00,0.5,3,32.5,59.5
2020-04-13T07:54:00+09:00,0.5,3,32.5,59.5
2020-04-13T07:55:00+09:00,0.5,3,32.5,59.5
2020-04-13T07:56:00+09:00,0.5,3,32.5,59.5
2020-04-13T07:57:00+09:00,1,3.5,33,60
2020-04-13T07:58:00+09:00,1,3.5,33,60
2020-04-13T07:59:00+09:00,0.5,3.5,33,60
2020-04-13T08:00:00+09:00,0.5,3.5,33,60
2020-04-13T08:01:00+09:00,0.5,3.5,33,60
2020-04-13T08:02:00+09:00,0.5,3.5,33,60
2020-04-13T08:03:00+09:00,0.5,3.5,33,60
2020-04-13T08:04:00+09:00,1,3.5,33.5,60.5
2020-04-13T08:05:00+09:00,1,3.5,33.5,60.5
2020-04-13T08:06:00+09:00,1,3.5,33.5,60.5
2020-04-13T08:07:00+09:00,0.5,3.5,33.5,60.5
2020-04-13T08:08:00+09:00,0.5,3.5,33.5,60.5
2020-04-13T08:09:00+09:00,0.5,3.5,33.5,60.5
2020-04-13T08:10:00+09:00,0.5,3.5,33.5,60.5
2020-04-13T08:11:00+09:00,0.5,3.5,33.5,60.5
2020-04-13T08:12:00+09:00,0.5,3.5,33.5,60.5
2020-04-13T08:13:00+09:00,1,4,34,61
2020-04-13T08:14:00+09:00,0.5,3.5,34,61
2020-04-13T08:15:00+09:00,0.5,3.5,34,61
2020-04-13T08:16:00+09:00,0.5,3.5,34,61
2020-04-13T08:17:00+09:00,0.5,3.5,34,61
2020-04-13T08:18:00+09:00,0.5,3.5,34,61
2020-04-13T08:19:00+09:00,0.5,3.5,34,61
2020-04-13T08:20:00+09:00,1,4,34.5,61.5
2020-04-13T08:21:00+09:00,1,3.5,34.5,61.5
2020-04-13T08:22:00+09:00,1,3.5,34.5,61.5
2020-04-13T08:23:00+09:00,0.5,3.5,34.5,61.5
2020-04-13T08:24:00+09:00,0.5,3.5,34.5,61.5
2020-04-13T08:25:00+09:00,0.5,3.5,34.5,61.5
2020-04-13T08:26:00+09:00,1,4,35,62
2020-04-13T08:27:00+09:00,1,4,35,62
2020-04-13T08:28:00+09:00,1,4,35,62
2020-04-13T08:29:00+09:00,1,4,35,62
2020-04-13T08:30:00+09:00,0.5,4,35,62
2020-04-13T08:31:00+09:00,0.5,4,35,62
2020-04-13T08:32:00+09:00,1,4,35.5,62.5
2020-04-13T08:33:00+09:00,1,4,35.5,62.5
2020-04-13T08:34:00+09:00,1,4,35.5,62.5
2020-04-13T08:35:00+09:00,1.5,4.5,36,63
2020-04-13T08:36:00+09:00,1,4.5,36,63
2020-04-13T08:37:00+09:00,1,4.5,36,63
2020-04-13T08:38:00+09:00,1,4.5,36,63
2020-04-13T08:39:00+09:00,1,4.5,36,63
2020-04-13T08:40:00+09:00,1,4,36,63
2020-04-13T08:41:00+09:00,1,4,36,63
2020-04-13T08:42:00+09:00,1,4.5,36.5,63.5
2020-04-13T08:43:00+09:00,1,4.5,36.5,63.5
2020-04-13T08:44:00+09:00,1,4.5,36.5,63.5
2020-04-13T08:45:00+09:00,0.5,4.5,36.5,63.5
2020-04-13T08:46:00+09:00,0.5,4.5,36.5,63.5
2020-04-13T08:47:00+09:00,1,5,37,64
2020-04-13T08:48:00+09:00,1,5,37,64
2020-04-13T08:49:00+09:00,1,4.5,37,64
2020-04-13T08:50:00+09:00,1,4.5,37,64
2020-04-13T08:51:00+09:00,1,4.5,37,64
2020-04-13T08:52:00+09:00,0.5,4.5,37,64
2020-04-13T08:53:00+09:00,0.5,4.5,37,64
2020-04-13T08:54:00+09:00,0.5,4.5,37,64
2020-04-13T08:55:00+09:00,0.5,4.5,37,64
2020-04-13T08:56:00+09:00,0.5,4.5,37,64
2020-04-13T08:57:00+09:00,0,4,37,64
2020-04-13T08:58:00+09:00,0,4,37,64
2020-04-13T08:59:00+09:00,0,4,37,64
2020-04-13T09:00:00+09:00,0,4,37,64
2020-04-13T09:01:00+09:00,0,4,37,64
2020-04-13T09:02:00+09:00,0,4,37,64
2020-04-13T09:03:00+09:00,0,4,37,64
2020-04-13T09:04:00+09:00,0,3.5,37,64
2020-04-13T09:05:00+09:00,0,3.5,37,64
2020-04-13T09:06:00+09:00,0,3.5,37,64
2020-04-13T09:07:00+09:00,0,3.5,37,64
2020-04-13T09:08:00+09:00,0,3.5,37,64
2020-04-13T09:09:00+09:00,0,3.5,37,64
2020-04-13T09:10:00+09:00,0.5,4,37.5,64.5
2020-04-13T09:11:00+09:00,0.5,4,37.5,64.5
2020-04-13T09:12:00+09:00,0.5,4,37.5,64.5
2020-04-13T09:13:00+09:00,0.5,3.5,37.5,64.5
2020-04-13T09:14:00+09:00,0.5,3.5,37.5,64.5
2020-04-13T09:15:00+09:00,0.5,3.5,37.5,64.5
2020-04-13T09:16:00+09:00,0.5,3.5,37.5,64.5
2020-04-13T09:17:00+09:00,0.5,3.5,37.5,64.5
2020-04-13T09:18:00+09:00,0.5,3.5,37.5,64.5
2020-04-13T09:19:00+09:00,0.5,3.5,37.5,64.5
2020-04-13T09:20:00+09:00,0,3,37.5,64.5
2020-04-13T09:21:00+09:00,0,3,37.5,64.5
2020-04-13T09:22:00+09:00,0,3,37.5,64.5
2020-04-13T09:23:00+09:00,0,3,37.5,64.5
2020-04-13T09:24:00+09:00,0,3,37.5,64.5
2020-04-13T09:25:00+09:00,0,3,37.5,64.5
2020-04-13T09:26:00+09:00,0,2.5,37.5,64.5
2020-04-13T09:27:00+09:00,0,2.5,37.5,64.5
2020-04-13T09:28:00+09:00,0,2.5,37.5,64.5
2020-04-13T09:29:00+09:00,0,2.5,37.5,64.5
2020-04-13T09:30:00+09:00,0,2.5,37.5,64.5
2020-04-13T09:31:00+09:00,0,2.5,37.5,64.5
2020-04-13T09:32:00+09:00,0,2,37.5,64.5
2020-04-13T09:33:00+09:00,0,2,37.5,64.5
2020-04-13T09:34:00+09:00,0,2,37.5,64.5
2020-04-13T09:35:00+09:00,0,1.5,37.5,64.5
2020-04-13T09:36:00+09:00,0,1.5,37.5,64.5
2020-04-13T09:37:00+09:00,0,1.5,37.5,64.5
2020-04-13T09:38:00+09:00,0,1.5,37.5,64.5
2020-04-13T09:39:00+09:00,0,1.5,37.5,64.5
2020-04-13T09:40:00+09:00,0,1.5,37.5,64.5
2020-04-13T09:41:00+09:00,0,1.5,37.5,64.5
2020-04-13T09:42:00+09:00,0,1,37.5,64.5
2020-04-13T09:43:00+09:00,0,1,37.5,64.5
2020-04-13T09:44:00+09:00,0.5,1.5,38,65
2020-04-13T09:45:00+09:00,0.5,1.5,38,65
2020-04-13T09:46:00+09:00,0.5,1.5,38,65
2020-04-13T09:47:00+09:00,0.5,1,38,65
2020-04-13T09:48:00+09:00,0.5,1,38,65
2020-04-13T09:49:00+09:00,0.5,1,38,65
2020-04-13T09:50:00+09:00,0.5,1,38,65
2020-04-13T09:51:00+09:00,0.5,1,38,65
2020-04-13T09:52:00+09:00,0.5,1,38,65
2020-04-13T09:53:00+09:00,0.5,1,38,65
2020-04-13T09:54:00+09:00,0,1,38,65
2020-04-13T09:55:00+09:00,0,1,38,65
2020-04-13T09:56:00+09:00,0,1,38,65
2020-04-13T09:57:00+09:00,0,1,38,65
2020-04-13T09:58:00+09:00,0,1,38,65
2020-04-13T09:59:00+09:00,0,1,38,65